This is the latest recevied weather packets stored in our database for station/object DK7LH-6. If no packets are shown the sender has not sent any weather packets the latest 10 day(s).
| Time | Temp. | Humidity | Pressure | Rain* | Wind** | Luminosity | Snow |
|---|---|---|---|---|---|---|---|
| 1777975223 | 10.56° C | 81% | 1010.9 hPa | 0 mm | - | 221 W/m² | - |
| 1777974356 | 10° C | 82% | 1010.9 hPa | 0 mm | - | 213 W/m² | - |
| 1777973427 | 9.44° C | 83% | 1011 hPa | 0 mm | - | 146 W/m² | - |
| 1777972557 | 9.44° C | 85% | 1011 hPa | 0 mm | - | 126 W/m² | - |
| 1777971628 | 9.44° C | 87% | 1011 hPa | 0 mm | - | 101 W/m² | - |
| 1777970759 | 8.89° C | 87% | 1011.1 hPa | 0 mm | - | 68 W/m² | - |
| 1777969829 | 8.89° C | 86% | 1011.2 hPa | 0 mm | - | 58 W/m² | - |
| 1777968962 | 8.89° C | 86% | 1011.2 hPa | 0 mm | - | 45 W/m² | - |
| 1777968031 | 8.89° C | 87% | 1011.3 hPa | 0 mm | - | 49 W/m² | - |
| 1777967163 | 8.33° C | 88% | 1011.3 hPa | 0 mm | - | 50 W/m² | - |
| 1777966233 | 8.33° C | 88% | 1011.2 hPa | 0 mm | - | 38 W/m² | - |
| 1777965366 | 8.33° C | 90% | 1011 hPa | 0 mm | - | 38 W/m² | - |
| 1777964436 | 8.33° C | 91% | 1011.2 hPa | 0 mm | - | 27 W/m² | - |
| 1777963567 | 8.33° C | 92% | 1011.2 hPa | 0 mm | - | 28 W/m² | - |
| 1777962638 | 8.33° C | 92% | 1011.1 hPa | 0 mm | - | 35 W/m² | - |
| 1777961769 | 8.33° C | 93% | 1011.2 hPa | 0 mm | - | 32 W/m² | - |
| 1777960839 | 8.33° C | 93% | 1011.2 hPa | 0 mm | - | 22 W/m² | - |
| 1777959971 | 8.33° C | 94% | 1011.1 hPa | 0 mm | - | 23 W/m² | - |
| 1777959072 | 8.33° C | 93% | 1011.2 hPa | 0 mm | - | 16 W/m² | - |
| 1777958142 | 8.33° C | 93% | 1011 hPa | 0 mm | - | 8 W/m² | - |
| 1777957274 | 8.33° C | 92% | 1011 hPa | 0 mm | - | 6 W/m² | - |
| 1777956344 | 8.33° C | 93% | 1011 hPa | 0 mm | - | 4 W/m² | - |
| 1777955476 | 8.33° C | 93% | 1011.1 hPa | 0 mm | - | 4 W/m² | - |
| 1777954546 | 8.33° C | 93% | 1011 hPa | 0 mm | - | 1 W/m² | - |
| 1777953616 | 8.33° C | 95% | 1011 hPa | 0 mm | - | 0 W/m² | - |
* Rain latest hour (hover to see other rain measurements)
** Current wind speed in m/s (hover to see current wind gust speed)